GFSFLT1_prec_snow_324.txt.gz
Snowfall_Accumulation
0.0 0.0 0.0 0.0 0.0 0.0 0.0 0.0 0.0 0.0 0.0 0.0 0.0 0.0 0.0 0.0 0.0 0.0 0.0 0.0 0.0 0.0 0.0 0.0 0.0 0.0 0.0 0.0 0.0 0.0 0.0 0.0
0.0 0.0 0.0 0.0 0.0 0.0 0.0 0.0 0.0 0.0 0.0 0.0 0.0 0.0 0.0 0.0 0.0 0.0 0.0 0.0 0.0 0.0 0.0 0.0 0.0 0.0 0.0 0.0 0.0 0.1 0.0 0.0
0.0 0.0 0.0 0.0 0.0 0.0 0.0 0.0 0.0 0.0 0.0 0.0 0.0 0.0 0.0 0.0 0.0 0.0 0.0 0.0 0.0 0.0 0.0 0.0 0.0 0.0 0.0 0.0 0.1 0.4 0.1 0.0
0.0 0.0 0.0 0.0 0.0 0.0 0.0 0.0 0.0 0.0 0.0 0.0 0.0 0.0 0.0 0.0 0.0 0.0 0.0 0.0 0.0 0.0 0.0 0.0 0.0 0.0 0.1 0.0 0.2 0.7 1.5 0.2
0.0 0.0 0.0 0.0 0.0 0.0 0.0 0.0 0.0 0.0 0.0 0.0 0.0 0.0 0.0 0.0 0.0 0.0 0.0 0.0 0.0 0.0 0.0 0.0 0.0 0.0 0.0 0.1 0.1 0.6 1.3 1.6
0.0 0.0 0.0 0.0 0.0 0.0 0.0 0.0 0.0 0.0 0.0 0.0 0.0 0.0 0.0 0.0 0.0 0.0 0.0 0.0 0.0 0.0 0.0 0.0 0.0 0.0 0.0 0.0 0.1 0.7 1.1 2.1
0.0 0.0 0.0 0.0 0.0 0.0 0.0 0.0 0.0 0.0 0.0 0.0 0.1 0.1 0.1 0.1 0.1 0.0 0.0 0.0 0.0 0.0 0.0 0.0 0.0 0.0 0.2 0.1 0.3 0.8 1.0 1.6
1.0 0.1 1.6 1.4 0.3 0.2 0.0 0.0 0.0 0.0 0.0 0.0 0.0 0.1 0.1 0.2 0.2 0.1 0.0 0.0 0.1 0.1 0.0 0.1 0.1 0.0 0.0 0.1 0.6 1.4 1.7 2.7
2.3 5.7 2.8 1.7 1.9 1.3 1.2 0.0 0.2 0.0 0.0 0.0 0.0 0.1 0.2 0.2 0.2 0.3 0.2 0.2 0.2 0.0 0.1 0.0 0.0 0.1 0.0 0.6 1.2 1.8 2.1 2.6
4.2 5.0 2.8 1.2 6.8 10.0 3.4 3.1 0.5 0.3 0.1 0.1 0.1 0.1 0.1 0.3 0.1 0.1 0.2 0.3 0.3 0.1 0.1 0.1 0.0 0.2 0.8 1.7 2.7 2.9 3.1 3.7
4.9 6.9 2.7 2.6 11.1 9.6 4.8 1.5 2.1 1.3 0.1 0.0 0.3 0.2 0.4 0.3 0.2 0.3 0.4 0.4 0.5 0.4 0.4 0.2 0.4 1.0 2.1 2.7 3.2 3.5 3.6 3.4
9.4 5.9 3.5 2.5 6.2 10.2 8.4 6.7 6.3 6.3 3.6 1.1 0.4 2.0 0.4 0.3 0.4 1.6 1.8 2.0 1.4 0.4 0.4 0.4 2.0 4.0 2.8 3.9 4.5 4.5 4.1 4.4
10.1 4.7 4.8 3.3 3.9 4.7 8.3 9.0 10.3 12.7 10.4 8.0 2.6 4.0 4.0 2.5 2.3 2.2 2.8 2.7 1.0 0.8 0.5 1.8 3.9 5.5 4.8 6.3 7.0 5.6 6.6 6.7
12.6 14.9 4.8 6.0 4.6 7.9 8.0 8.0 6.1 8.0 14.6 15.7 5.9 6.7 5.2 5.8 6.0 5.3 5.2 4.2 3.6 3.1 1.2 3.5 3.9 5.5 5.3 8.4 8.7 6.5 8.0 9.4
8.9 6.5 6.1 4.1 3.0 5.2 3.2 2.4 3.8 5.0 5.8 11.0 11.3 10.8 12.6 10.3 7.4 8.7 9.8 7.8 7.8 6.9 7.0 6.8 7.1 6.5 6.0 6.7 6.2 6.3 7.2 9.8
2.4 3.7 4.6 4.2 2.5 1.9 1.1 0.3 0.1 0.3 0.4 0.3 4.0 12.0 11.4 11.9 11.9 13.6 10.9 13.7 13.4 9.6 12.0 7.7 9.0 12.1 12.9 10.5 10.2 8.2 7.4 6.8
1.3 0.4 0.9 1.6 0.9 0.4 0.0 0.0 0.0 0.0 0.0 0.0 0.0 0.0 0.6 3.3 5.0 5.7 4.7 9.3 12.1 9.5 11.7 8.7 10.9 14.4 20.3 17.4 15.4 15.3 14.1 11.5
8.6 3.8 4.0 0.4 2.1 0.0 1.1 0.0 0.0 0.0 0.0 0.1 0.0 0.0 0.0 0.6 0.3 0.3 2.7 2.3 2.3 3.2 5.1 4.8 6.8 12.0 12.5 12.0 14.7 16.1 16.4 15.9
5.1 9.3 7.7 4.8 4.8 3.0 2.4 1.5 1.6 0.0 0.0 0.0 0.0 0.1 1.2 0.8 0.0 0.1 1.4 1.8 1.6 4.0 4.5 4.9 6.0 9.8 11.2 9.3 8.6 10.7 13.8 12.3

GFSFLT1_prec_snow_330.txt.gz
Snowfall_Accumulation
0.0 0.0 0.0 0.0 0.0 0.0 0.0 0.0 0.0 0.0 0.0 0.0 0.0 0.0 0.0 0.0 0.0 0.0 0.0 0.0 0.0 0.0 0.0 0.0 0.0 0.0 0.0 0.0 0.0 0.0 0.0 0.0
0.0 0.0 0.0 0.0 0.0 0.0 0.0 0.0 0.0 0.0 0.0 0.0 0.0 0.0 0.0 0.0 0.0 0.0 0.0 0.0 0.0 0.0 0.0 0.0 0.0 0.0 0.0 0.0 0.0 0.1 0.0 0.0
0.0 0.0 0.0 0.0 0.0 0.0 0.0 0.0 0.0 0.0 0.0 0.0 0.0 0.0 0.0 0.0 0.0 0.0 0.0 0.0 0.0 0.0 0.0 0.0 0.0 0.0 0.0 0.0 0.1 0.4 0.1 0.0
0.0 0.0 0.0 0.0 0.0 0.0 0.0 0.0 0.0 0.0 0.0 0.0 0.0 0.0 0.0 0.0 0.0 0.0 0.0 0.0 0.0 0.0 0.0 0.0 0.0 0.0 0.1 0.0 0.2 0.7 1.5 0.2
0.0 0.0 0.0 0.0 0.0 0.0 0.0 0.0 0.0 0.0 0.0 0.0 0.0 0.0 0.0 0.0 0.0 0.0 0.0 0.0 0.0 0.0 0.0 0.0 0.0 0.0 0.0 0.1 0.1 0.6 1.3 1.6
0.0 0.0 0.0 0.0 0.0 0.0 0.0 0.0 0.0 0.0 0.0 0.0 0.0 0.0 0.0 0.0 0.0 0.0 0.0 0.0 0.0 0.0 0.0 0.0 0.0 0.0 0.0 0.0 0.1 0.7 1.1 2.1
0.0 0.0 0.0 0.0 0.0 0.0 0.0 0.0 0.0 0.0 0.0 0.0 0.1 0.1 0.1 0.1 0.1 0.0 0.0 0.0 0.0 0.0 0.0 0.0 0.0 0.0 0.2 0.1 0.3 0.8 1.0 1.6
1.0 0.1 1.6 1.4 0.3 0.2 0.0 0.0 0.0 0.0 0.0 0.0 0.0 0.1 0.1 0.2 0.2 0.1 0.0 0.0 0.1 0.1 0.0 0.1 0.1 0.0 0.0 0.1 0.6 1.5 1.7 2.7
2.3 5.7 2.8 1.7 1.9 1.3 1.2 0.0 0.2 0.0 0.0 0.0 0.0 0.1 0.2 0.2 0.2 0.3 0.2 0.2 0.2 0.0 0.1 0.0 0.0 0.1 0.0 0.7 1.6 2.2 2.9 3.4
4.2 5.0 2.8 1.2 6.8 10.0 3.4 3.1 0.5 0.3 0.1 0.1 0.1 0.1 0.1 0.3 0.1 0.1 0.2 0.3 0.3 0.1 0.1 0.1 0.0 0.5 1.3 3.1 4.6 4.6 4.5 5.0
4.9 6.9 2.7 2.6 11.1 9.6 4.8 1.5 2.1 1.3 0.1 0.0 0.3 0.2 0.4 0.3 0.2 0.3 0.4 0.4 0.5 0.4 0.4 0.3 1.3 2.8 4.5 5.5 6.1 6.0 6.0 5.0
9.4 5.9 3.5 2.5 6.2 10.2 8.4 6.7 6.3 6.3 3.6 1.1 0.4 2.0 0.4 0.3 0.4 1.6 1.8 2.0 1.4 0.5 1.0 1.8 4.0 6.8 5.2 6.4 6.9 6.2 5.3 5.3
10.1 4.7 4.8 3.3 3.9 4.7 8.3 9.0 10.3 12.7 10.4 8.0 2.6 4.0 4.0 2.5 2.3 2.2 2.8 2.7 1.2 1.8 1.9 4.3 7.5 8.2 6.7 8.3 8.7 6.9 7.1 7.3
12.6 14.9 4.8 6.0 4.6 7.9 8.0 8.0 6.1 8.0 14.6 15.7 5.9 6.7 5.2 5.8 6.0 5.3 5.2 4.3 4.2 4.2 3.1 7.4 8.0 8.1 7.4 10.2 10.0 7.2 8.4 9.8
8.9 6.5 6.1 4.1 3.0 5.2 3.2 2.4 3.8 5.0 5.8 11.0 11.3 10.8 12.6 10.3 7.4 8.7 9.8 8.4 8.9 8.5 9.7 10.8 10.4 9.2 8.3 8.6 7.0 6.9 7.7 10.5
2.4 3.7 4.6 4.2 2.5 1.9 1.1 0.3 0.1 0.3 0.4 0.3 4.0 12.0 11.4 11.9 11.9 13.6 11.1 14.8 15.1 11.8 14.3 9.6 11.0 13.9 15.0 11.7 10.8 8.8 8.3 7.8
1.3 0.4 0.9 1.6 0.9 0.4 0.0 0.0 0.0 0.0 0.0 0.0 0.0 0.0 0.6 3.3 5.0 5.7 4.9 10.7 14.0 10.0 13.1 10.7 12.5 16.1 21.5 18.3 16.1 16.1 15.0 12.3
8.6 3.8 4.0 0.4 2.1 0.0 1.1 0.0 0.0 0.0 0.0 0.1 0.0 0.0 0.0 0.7 0.4 0.4 3.0 3.7 3.7 4.2 6.2 6.2 8.7 13.3 13.2 12.8 15.9 17.0 17.3 16.5
5.1 9.3 7.7 4.8 4.8 3.0 2.4 1.5 1.6 0.0 0.0 0.0 0.0 0.1 1.2 1.0 0.1 0.2 1.8 2.3 2.5 4.7 5.5 6.2 7.6 11.1 11.9 10.1 9.8 11.4 14.3 12.6

GFSFLT1_prec_snow_333.txt.gz
Snowfall_Accumulation
0.0 0.0 0.0 0.0 0.0 0.0 0.0 0.0 0.0 0.0 0.0 0.0 0.0 0.0 0.0 0.0 0.0 0.0 0.0 0.0 0.0 0.0 0.0 0.0 0.0 0.0 0.0 0.0 0.0 0.0 0.0 0.0
0.0 0.0 0.0 0.0 0.0 0.0 0.0 0.0 0.0 0.0 0.0 0.0 0.0 0.0 0.0 0.0 0.0 0.0 0.0 0.0 0.0 0.0 0.0 0.0 0.0 0.0 0.0 0.0 0.0 0.1 0.0 0.0
0.0 0.0 0.0 0.0 0.0 0.0 0.0 0.0 0.0 0.0 0.0 0.0 0.0 0.0 0.0 0.0 0.0 0.0 0.0 0.0 0.0 0.0 0.0 0.0 0.0 0.0 0.0 0.0 0.1 0.4 0.1 0.0
0.0 0.0 0.0 0.0 0.0 0.0 0.0 0.0 0.0 0.0 0.0 0.0 0.0 0.0 0.0 0.0 0.0 0.0 0.0 0.0 0.0 0.0 0.0 0.0 0.0 0.0 0.1 0.0 0.2 0.7 1.5 0.2
0.0 0.0 0.0 0.0 0.0 0.0 0.0 0.0 0.0 0.0 0.0 0.0 0.0 0.0 0.0 0.0 0.0 0.0 0.0 0.0 0.0 0.0 0.0 0.0 0.0 0.0 0.0 0.1 0.1 0.6 1.3 1.6
0.0 0.0 0.0 0.0 0.0 0.0 0.0 0.0 0.0 0.0 0.0 0.0 0.0 0.0 0.0 0.0 0.0 0.0 0.0 0.0 0.0 0.0 0.0 0.0 0.0 0.0 0.0 0.0 0.1 0.7 1.1 2.1
0.0 0.0 0.0 0.0 0.0 0.0 0.0 0.0 0.0 0.0 0.0 0.0 0.1 0.1 0.1 0.1 0.1 0.0 0.0 0.0 0.0 0.0 0.0 0.0 0.0 0.0 0.2 0.1 0.3 0.8 1.0 1.6
1.0 0.1 1.6 1.4 0.3 0.2 0.0 0.0 0.0 0.0 0.0 0.0 0.0 0.1 0.1 0.2 0.2 0.1 0.0 0.0 0.1 0.1 0.0 0.1 0.1 0.0 0.0 0.1 0.6 1.5 1.7 2.7
2.3 5.7 2.8 1.7 1.9 1.3 1.2 0.0 0.2 0.0 0.0 0.0 0.0 0.1 0.2 0.2 0.2 0.3 0.2 0.2 0.2 0.0 0.1 0.0 0.0 0.1 0.0 0.7 1.6 2.2 2.9 3.4
4.2 5.0 2.8 1.2 6.8 10.0 3.4 3.1 0.5 0.3 0.1 0.1 0.1 0.1 0.1 0.3 0.1 0.1 0.2 0.3 0.3 0.1 0.1 0.1 0.0 0.5 1.3 3.1 4.6 5.3 4.5 5.0
4.9 6.9 2.7 2.6 11.1 9.6 4.8 1.5 2.1 1.3 0.1 0.0 0.3 0.2 0.4 0.3 0.2 0.3 0.4 0.4 0.5 0.4 0.4 0.3 1.3 2.8 5.5 6.5 7.1 6.7 6.8 5.8
9.4 5.9 3.5 2.5 6.2 10.2 8.4 6.7 6.3 6.3 3.6 1.1 0.4 2.0 0.4 0.3 0.4 1.6 1.8 2.0 1.4 0.9 2.1 3.4 5.4 7.8 6.0 7.3 7.5 6.5 5.6 5.8
10.1 4.7 4.8 3.3 3.9 4.7 8.3 9.0 10.3 12.7 10.4 8.0 2.6 4.0 4.0 2.5 2.3 2.2 2.8 2.9 1.7 2.9 3.3 5.3 8.3 8.7 7.0 8.7 9.0 7.2 7.5 7.7
12.6 14.9 4.8 6.0 4.6 7.9 8.0 8.0 6.1 8.0 14.6 15.7 5.9 6.7 5.2 5.8 6.0 5.3 5.3 4.9 4.9 4.9 3.8 7.8 8.3 8.3 7.6 10.4 10.3 7.6 8.9 10.1
8.9 6.5 6.1 4.1 3.0 5.2 3.2 2.4 3.8 5.0 5.8 11.0 11.3 10.8 12.6 10.4 7.5 8.8 10.2 9.0 9.4 8.5 9.9 10.9 10.5 9.3 8.4 8.8 7.3 7.2 8.0 10.8
2.4 3.7 4.6 4.2 2.5 1.9 1.1 0.3 0.1 0.3 0.4 0.3 4.0 12.0 11.4 12.0 12.1 13.9 11.6 14.8 15.4 12.0 14.4 9.7 11.2 14.0 15.2 11.9 11.0 9.1 8.5 8.0
1.3 0.4 0.9 1.6 0.9 0.4 0.0 0.0 0.0 0.0 0.0 0.0 0.0 0.0 0.7 3.7 5.5 6.2 5.4 10.7 14.1 10.0 13.2 10.9 12.8 16.6 22.1 18.8 16.7 16.7 15.3 12.4
8.6 3.8 4.0 0.4 2.1 0.0 1.1 0.0 0.0 0.0 0.0 0.1 0.0 0.0 0.3 1.4 1.0 0.8 3.3 3.8 3.8 4.3 6.3 6.3 8.7 13.6 13.7 13.6 16.5 17.4 17.6 16.7
5.1 9.3 7.7 4.8 4.8 3.0 2.4 1.5 1.6 0.0 0.0 0.0 0.0 0.2 1.8 2.0 0.1 0.2 1.8 2.3 2.6 5.0 5.8 6.5 7.9 11.4 12.1 10.2 10.0 11.5 14.4 12.7

GFSFLT1_prec_snow_336.txt.gz
Snowfall_Accumulation
0.0 0.0 0.0 0.0 0.0 0.0 0.0 0.0 0.0 0.0 0.0 0.0 0.0 0.0 0.0 0.0 0.0 0.0 0.0 0.0 0.0 0.0 0.0 0.0 0.0 0.0 0.0 0.0 0.0 0.0 0.0 0.0
0.0 0.0 0.0 0.0 0.0 0.0 0.0 0.0 0.0 0.0 0.0 0.0 0.0 0.0 0.0 0.0 0.0 0.0 0.0 0.0 0.0 0.0 0.0 0.0 0.0 0.0 0.0 0.0 0.0 0.1 0.0 0.0
0.0 0.0 0.0 0.0 0.0 0.0 0.0 0.0 0.0 0.0 0.0 0.0 0.0 0.0 0.0 0.0 0.0 0.0 0.0 0.0 0.0 0.0 0.0 0.0 0.0 0.0 0.0 0.0 0.1 0.4 0.1 0.0
0.0 0.0 0.0 0.0 0.0 0.0 0.0 0.0 0.0 0.0 0.0 0.0 0.0 0.0 0.0 0.0 0.0 0.0 0.0 0.0 0.0 0.0 0.0 0.0 0.0 0.0 0.1 0.0 0.2 0.7 1.5 0.2
0.0 0.0 0.0 0.0 0.0 0.0 0.0 0.0 0.0 0.0 0.0 0.0 0.0 0.0 0.0 0.0 0.0 0.0 0.0 0.0 0.0 0.0 0.0 0.0 0.0 0.0 0.0 0.1 0.1 0.6 1.3 1.6
0.0 0.0 0.0 0.0 0.0 0.0 0.0 0.0 0.0 0.0 0.0 0.0 0.0 0.0 0.0 0.0 0.0 0.0 0.0 0.0 0.0 0.0 0.0 0.0 0.0 0.0 0.0 0.0 0.1 0.7 1.1 2.1
0.0 0.0 0.0 0.0 0.0 0.0 0.0 0.0 0.0 0.0 0.0 0.0 0.1 0.1 0.1 0.1 0.1 0.0 0.0 0.0 0.0 0.0 0.0 0.0 0.0 0.0 0.2 0.1 0.3 0.8 1.0 1.6
1.0 0.1 1.6 1.4 0.3 0.2 0.0 0.0 0.0 0.0 0.0 0.0 0.0 0.1 0.1 0.2 0.2 0.1 0.0 0.0 0.1 0.1 0.0 0.1 0.1 0.0 0.0 0.1 0.6 1.5 1.7 2.7
2.3 5.7 2.8 1.7 1.9 1.3 1.2 0.0 0.2 0.0 0.0 0.0 0.0 0.1 0.2 0.2 0.2 0.3 0.2 0.2 0.2 0.0 0.1 0.0 0.0 0.1 0.0 0.7 1.6 2.2 2.9 3.4
4.2 5.0 2.8 1.2 6.8 10.0 3.4 3.1 0.5 0.3 0.1 0.1 0.1 0.1 0.1 0.3 0.1 0.1 0.2 0.3 0.3 0.1 0.1 0.1 0.0 0.5 1.3 3.1 4.6 5.3 4.5 5.0
4.9 6.9 2.7 2.6 11.1 9.6 4.8 1.5 2.1 1.3 0.1 0.0 0.3 0.2 0.4 0.3 0.2 0.3 0.4 0.4 0.5 0.4 0.4 0.3 1.3 2.8 5.5 6.5 7.1 6.7 6.8 5.8
9.4 5.9 3.5 2.5 6.2 10.2 8.4 6.7 6.3 6.3 3.6 1.1 0.4 2.0 0.4 0.3 0.4 1.6 2.0 2.5 2.2 1.9 3.1 4.1 6.0 8.4 6.6 8.0 8.1 7.3 6.3 6.5
10.1 4.7 4.8 3.3 3.9 4.7 8.3 9.0 10.3 12.7 10.4 8.0 2.6 4.0 4.0 2.5 2.5 2.6 3.3 3.4 2.2 3.3 3.5 5.5 8.5 8.9 7.1 8.8 9.2 7.4 7.7 8.0
12.6 14.9 4.8 6.0 4.6 7.9 8.0 8.0 6.1 8.0 14.6 15.7 5.9 6.7 5.2 5.9 6.3 5.8 5.6 5.1 5.0 5.0 3.9 8.0 8.5 8.4 7.7 10.6 10.4 7.8 9.1 10.3
8.9 6.5 6.1 4.1 3.0 5.2 3.2 2.4 3.8 5.0 5.8 11.0 11.3 10.8 12.7 10.7 8.0 9.1 10.3 9.1 9.5 8.6 10.1 11.1 10.6 9.4 8.5 9.0 7.4 7.4 8.0 11.0
2.4 3.7 4.6 4.2 2.5 1.9 1.1 0.3 0.1 0.3 0.4 0.3 4.0 12.0 11.7 12.5 12.5 13.9 11.6 14.8 15.4 12.0 14.6 9.9 11.5 14.3 15.4 12.1 11.1 9.2 8.6 8.3
1.3 0.4 0.9 1.6 0.9 0.4 0.0 0.0 0.0 0.0 0.0 0.0 0.0 0.1 1.0 3.7 5.5 6.2 5.4 10.7 14.1 10.1 13.3 11.1 13.1 17.1 22.7 19.3 16.7 16.8 15.5 12.5
8.6 3.8 4.0 0.4 2.1 0.0 1.1 0.0 0.0 0.0 0.0 0.1 0.0 0.2 0.3 1.4 1.0 0.9 3.4 3.9 3.8 4.3 6.5 6.4 8.8 13.8 14.1 14.1 16.7 17.5 17.8 16.9
5.1 9.3 7.7 4.8 4.8 3.0 2.4 1.5 1.6 0.0 0.0 0.0 0.1 0.2 1.8 2.0 0.1 0.3 1.8 2.3 2.7 5.1 5.9 6.6 7.9 11.6 12.2 10.4 10.2 11.7 14.6 12.9

GFSFLT1_prec_snow_339.txt.gz
Snowfall_Accumulation
0.0 0.0 0.0 0.0 0.0 0.0 0.0 0.0 0.0 0.0 0.0 0.0 0.0 0.0 0.0 0.0 0.0 0.0 0.0 0.0 0.0 0.0 0.0 0.0 0.0 0.0 0.0 0.0 0.0 0.0 0.0 0.0
0.0 0.0 0.0 0.0 0.0 0.0 0.0 0.0 0.0 0.0 0.0 0.0 0.0 0.0 0.0 0.0 0.0 0.0 0.0 0.0 0.0 0.0 0.0 0.0 0.0 0.0 0.0 0.0 0.0 0.1 0.0 0.0
0.0 0.0 0.0 0.0 0.0 0.0 0.0 0.0 0.0 0.0 0.0 0.0 0.0 0.0 0.0 0.0 0.0 0.0 0.0 0.0 0.0 0.0 0.0 0.0 0.0 0.0 0.0 0.0 0.1 0.4 0.1 0.0
0.0 0.0 0.0 0.0 0.0 0.0 0.0 0.0 0.0 0.0 0.0 0.0 0.0 0.0 0.0 0.0 0.0 0.0 0.0 0.0 0.0 0.0 0.0 0.0 0.0 0.0 0.1 0.0 0.2 0.7 1.5 0.2
0.0 0.0 0.0 0.0 0.0 0.0 0.0 0.0 0.0 0.0 0.0 0.0 0.0 0.0 0.0 0.0 0.0 0.0 0.0 0.0 0.0 0.0 0.0 0.0 0.0 0.0 0.0 0.1 0.1 0.6 1.3 1.6
0.0 0.0 0.0 0.0 0.0 0.0 0.0 0.0 0.0 0.0 0.0 0.0 0.0 0.0 0.0 0.0 0.0 0.0 0.0 0.0 0.0 0.0 0.0 0.0 0.0 0.0 0.0 0.0 0.1 0.7 1.1 2.1
0.0 0.0 0.0 0.0 0.0 0.0 0.0 0.0 0.0 0.0 0.0 0.0 0.1 0.1 0.1 0.1 0.1 0.0 0.0 0.0 0.0 0.0 0.0 0.0 0.0 0.0 0.2 0.1 0.3 0.8 1.0 1.6
1.0 0.1 1.6 1.4 0.3 0.2 0.0 0.0 0.0 0.0 0.0 0.0 0.0 0.1 0.1 0.2 0.2 0.1 0.0 0.0 0.1 0.1 0.0 0.1 0.1 0.0 0.0 0.1 0.6 1.5 1.7 2.7
2.3 5.7 2.8 1.7 1.9 1.3 1.2 0.0 0.2 0.0 0.0 0.0 0.0 0.1 0.2 0.2 0.2 0.3 0.2 0.2 0.2 0.0 0.1 0.0 0.0 0.1 0.0 0.7 1.6 2.2 2.9 3.4
4.2 5.0 2.8 1.2 6.8 10.0 3.4 3.1 0.5 0.3 0.1 0.1 0.1 0.1 0.1 0.3 0.1 0.1 0.2 0.3 0.3 0.1 0.1 0.1 0.0 0.5 1.3 3.1 4.6 5.3 4.5 5.0
4.9 6.9 2.7 2.6 11.1 9.6 4.8 1.5 2.1 1.3 0.1 0.0 0.3 0.2 0.4 0.3 0.2 0.3 0.4 0.4 0.5 1.1 1.1 1.1 1.3 2.8 5.5 6.5 7.1 6.7 6.8 5.8
9.4 5.9 3.5 2.5 6.2 10.2 8.4 6.7 6.3 6.3 3.6 1.1 0.4 2.0 0.4 0.3 0.4 1.6 2.8 3.2 2.7 2.3 3.4 4.5 6.3 8.7 6.8 8.4 8.6 7.3 6.3 6.5
10.1 4.7 4.8 3.3 3.9 4.7 8.3 9.0 10.3 12.7 10.4 8.0 2.6 4.0 4.0 2.5 2.5 2.6 3.3 3.4 2.2 3.4 3.6 5.7 8.6 9.0 7.1 9.0 9.4 7.7 8.1 8.5
12.6 14.9 4.8 6.0 4.6 7.9 8.0 8.0 6.1 8.0 14.6 15.7 5.9 6.7 5.2 5.9 6.3 5.8 5.6 5.1 5.0 5.0 3.9 8.0 8.6 8.6 7.9 10.7 10.5 7.9 9.2 10.6
8.9 6.5 6.1 4.1 3.0 5.2 3.2 2.4 3.8 5.0 5.8 11.0 11.3 10.8 12.7 10.7 8.0 9.1 10.3 9.1 9.5 8.6 10.1 11.1 10.6 9.4 8.6 9.2 7.7 7.6 8.2 11.3
2.4 3.7 4.6 4.2 2.5 1.9 1.1 0.3 0.1 0.3 0.4 0.3 4.0 12.0 11.7 12.5 12.5 13.9 11.6 14.8 15.4 12.0 14.8 10.1 11.7 14.6 15.6 12.2 11.3 9.5 8.8 8.4
1.3 0.4 0.9 1.6 0.9 0.4 0.0 0.0 0.0 0.0 0.0 0.0 0.0 0.1 1.0 3.7 5.5 6.2 5.4 10.7 14.1 10.1 13.3 11.1 13.2 17.3 23.1 19.7 16.9 17.0 15.6 12.7
8.6 3.8 4.0 0.4 2.1 0.0 1.1 0.0 0.0 0.0 0.0 0.1 0.0 0.2 0.3 1.4 1.0 0.9 3.4 3.9 3.8 4.3 6.6 6.4 8.9 14.0 14.5 14.7 17.0 17.5 17.8 17.0
5.1 9.3 7.7 4.8 4.8 3.0 2.4 1.5 1.6 0.0 0.0 0.0 0.1 0.2 1.8 2.0 0.2 0.3 1.8 2.3 2.9 5.3 6.0 6.6 8.0 11.8 12.5 10.7 10.2 11.9 14.8 13.1

GFSFLT1_prec_snow_342.txt.gz
Snowfall_Accumulation
0.0 0.0 0.0 0.0 0.0 0.0 0.0 0.0 0.0 0.0 0.0 0.0 0.0 0.0 0.0 0.0 0.0 0.0 0.0 0.0 0.0 0.0 0.0 0.0 0.0 0.0 0.0 0.0 0.0 0.0 0.0 0.0
0.0 0.0 0.0 0.0 0.0 0.0 0.0 0.0 0.0 0.0 0.0 0.0 0.0 0.0 0.0 0.0 0.0 0.0 0.0 0.0 0.0 0.0 0.0 0.0 0.0 0.0 0.0 0.0 0.0 0.1 0.0 0.0
0.0 0.0 0.0 0.0 0.0 0.0 0.0 0.0 0.0 0.0 0.0 0.0 0.0 0.0 0.0 0.0 0.0 0.0 0.0 0.0 0.0 0.0 0.0 0.0 0.0 0.0 0.0 0.0 0.1 0.4 0.1 0.0
0.0 0.0 0.0 0.0 0.0 0.0 0.0 0.0 0.0 0.0 0.0 0.0 0.0 0.0 0.0 0.0 0.0 0.0 0.0 0.0 0.0 0.0 0.0 0.0 0.0 0.0 0.1 0.0 0.2 0.7 1.5 0.2
0.0 0.0 0.0 0.0 0.0 0.0 0.0 0.0 0.0 0.0 0.0 0.0 0.0 0.0 0.0 0.0 0.0 0.0 0.0 0.0 0.0 0.0 0.0 0.0 0.0 0.0 0.0 0.1 0.1 0.6 1.3 1.6
0.0 0.0 0.0 0.0 0.0 0.0 0.0 0.0 0.0 0.0 0.0 0.0 0.0 0.0 0.0 0.0 0.0 0.0 0.0 0.0 0.0 0.0 0.0 0.0 0.0 0.0 0.0 0.0 0.1 0.7 1.1 2.1
0.0 0.0 0.0 0.0 0.0 0.0 0.0 0.0 0.0 0.0 0.0 0.0 0.1 0.1 0.1 0.1 0.1 0.0 0.0 0.0 0.0 0.0 0.0 0.0 0.0 0.0 0.2 0.1 0.3 0.8 1.0 1.6
1.0 0.1 1.6 1.4 0.3 0.2 0.0 0.0 0.0 0.0 0.0 0.0 0.0 0.1 0.1 0.2 0.2 0.1 0.0 0.0 0.1 0.1 0.0 0.1 0.1 0.0 0.0 0.1 0.6 1.5 1.7 2.7
2.3 5.7 2.8 1.7 1.9 1.3 1.2 0.0 0.2 0.0 0.0 0.0 0.0 0.1 0.2 0.2 0.2 0.3 0.2 0.2 0.2 0.0 0.1 0.0 0.0 0.1 0.0 0.7 1.6 2.2 2.9 3.4
4.2 5.0 2.8 1.2 6.8 10.0 3.4 3.1 0.5 0.3 0.1 0.1 0.1 0.1 0.1 0.3 0.1 0.1 0.2 0.3 0.3 0.1 0.1 0.1 0.0 0.5 1.3 3.1 4.6 5.3 4.5 5.0
4.9 6.9 2.7 2.6 11.1 9.6 4.8 1.5 2.1 1.3 0.1 0.0 0.3 0.2 0.4 0.3 0.2 0.3 0.4 0.4 0.5 1.1 1.1 1.1 1.3 2.8 5.5 6.5 7.1 6.7 6.8 5.8
9.4 5.9 3.5 2.5 6.2 10.2 8.4 6.7 6.3 6.3 3.6 1.1 0.4 2.0 0.4 0.3 0.4 1.6 2.8 3.2 2.7 2.3 3.4 4.5 6.3 8.7 6.8 8.5 8.6 7.6 6.3 6.5
10.1 4.7 4.8 3.3 3.9 4.7 8.3 9.0 10.3 12.7 10.4 8.0 2.6 4.0 4.0 2.5 2.5 2.6 3.3 3.4 2.2 3.4 3.6 5.7 8.6 9.0 7.1 9.0 9.4 7.7 8.1 8.5
12.6 14.9 4.8 6.0 4.6 7.9 8.0 8.0 6.1 8.0 14.6 15.7 5.9 6.7 5.2 5.9 6.3 5.8 5.6 5.1 5.0 5.0 3.9 8.0 8.6 8.6 7.9 10.8 10.5 7.9 9.2 10.6
8.9 6.5 6.1 4.1 3.0 5.2 3.2 2.4 3.8 5.0 5.8 11.0 11.3 10.8 12.7 10.7 8.0 9.1 10.3 9.1 9.5 8.6 10.1 11.1 10.6 9.4 8.7 9.2 7.8 7.7 8.3 11.4
2.4 3.7 4.6 4.2 2.5 1.9 1.1 0.3 0.1 0.3 0.4 0.3 4.0 12.0 11.7 12.5 12.5 13.9 11.6 14.8 15.4 12.0 14.8 10.3 11.7 14.7 15.8 12.4 11.5 9.6 8.9 8.4
1.3 0.4 0.9 1.6 0.9 0.4 0.0 0.0 0.0 0.0 0.0 0.0 0.0 0.1 1.0 3.7 5.5 6.2 5.4 10.7 14.2 10.3 13.4 11.2 13.2 17.5 23.8 20.2 17.3 17.5 15.7 12.8
8.6 3.8 4.0 0.4 2.1 0.0 1.1 0.0 0.0 0.0 0.0 0.1 0.0 0.2 0.3 1.4 1.0 0.9 3.4 3.9 3.8 4.4 6.7 6.4 9.0 14.1 15.0 15.3 17.5 17.8 17.9 17.0
5.1 9.3 7.7 4.8 4.8 3.0 2.4 1.5 1.6 0.0 0.0 0.0 0.1 0.2 1.8 2.0 0.2 0.3 1.8 2.3 3.1 5.4 6.2 6.7 8.1 12.0 13.0 11.2 10.4 11.9 14.8 13.1

GFSFLT1_prec_snow_345.txt.gz
Snowfall_Accumulation
0.0 0.0 0.0 0.0 0.0 0.0 0.0 0.0 0.0 0.0 0.0 0.0 0.0 0.0 0.0 0.0 0.0 0.0 0.0 0.0 0.0 0.0 0.0 0.0 0.0 0.0 0.0 0.0 0.0 0.0 0.0 0.0
0.0 0.0 0.0 0.0 0.0 0.0 0.0 0.0 0.0 0.0 0.0 0.0 0.0 0.0 0.0 0.0 0.0 0.0 0.0 0.0 0.0 0.0 0.0 0.0 0.0 0.0 0.0 0.0 0.0 0.1 0.0 0.0
0.0 0.0 0.0 0.0 0.0 0.0 0.0 0.0 0.0 0.0 0.0 0.0 0.0 0.0 0.0 0.0 0.0 0.0 0.0 0.0 0.0 0.0 0.0 0.0 0.0 0.0 0.0 0.0 0.1 0.4 0.1 0.0
0.0 0.0 0.0 0.0 0.0 0.0 0.0 0.0 0.0 0.0 0.0 0.0 0.0 0.0 0.0 0.0 0.0 0.0 0.0 0.0 0.0 0.0 0.0 0.0 0.0 0.0 0.1 0.0 0.2 0.7 1.5 0.2
0.0 0.0 0.0 0.0 0.0 0.0 0.0 0.0 0.0 0.0 0.0 0.0 0.0 0.0 0.0 0.0 0.0 0.0 0.0 0.0 0.0 0.0 0.0 0.0 0.0 0.0 0.0 0.1 0.1 0.6 1.3 1.6
0.0 0.0 0.0 0.0 0.0 0.0 0.0 0.0 0.0 0.0 0.0 0.0 0.0 0.0 0.0 0.0 0.0 0.0 0.0 0.0 0.0 0.0 0.0 0.0 0.0 0.0 0.0 0.0 0.1 0.7 1.1 2.1
0.0 0.0 0.0 0.0 0.0 0.0 0.0 0.0 0.0 0.0 0.0 0.0 0.1 0.1 0.1 0.1 0.1 0.0 0.0 0.0 0.0 0.0 0.0 0.0 0.0 0.0 0.2 0.1 0.3 0.8 1.0 1.6
1.0 0.1 1.6 1.4 0.3 0.2 0.0 0.0 0.0 0.0 0.0 0.0 0.0 0.1 0.1 0.2 0.2 0.1 0.0 0.0 0.1 0.1 0.0 0.1 0.1 0.0 0.0 0.1 0.6 1.5 1.7 2.7
2.3 5.7 2.8 1.7 1.9 1.3 1.2 0.0 0.2 0.0 0.0 0.0 0.0 0.1 0.2 0.2 0.2 0.3 0.2 0.2 0.2 0.0 0.1 0.0 0.0 0.1 0.0 0.7 1.6 2.2 2.9 3.4
4.2 5.0 2.8 1.2 6.8 10.0 3.4 3.1 0.5 0.3 0.1 0.1 0.1 0.1 0.1 0.3 0.1 0.1 0.2 0.3 0.3 0.1 0.1 0.1 0.0 0.5 1.3 3.1 4.6 5.3 4.5 5.0
4.9 6.9 2.7 2.6 11.1 9.6 4.8 1.5 2.1 1.3 0.1 0.0 0.3 0.2 0.4 0.3 0.2 0.3 0.4 0.4 0.5 1.1 1.1 1.1 1.3 2.8 5.5 6.7 7.1 6.7 6.8 5.8
9.4 5.9 3.5 2.5 6.2 10.2 8.4 6.7 6.3 6.3 3.6 1.1 0.4 2.0 0.4 0.3 0.4 1.6 2.8 3.2 2.7 2.3 3.4 4.5 6.3 8.7 6.8 8.5 8.6 7.8 6.3 6.5
10.1 4.7 4.8 3.3 3.9 4.7 8.3 9.0 10.3 12.7 10.4 8.0 2.6 4.0 4.0 2.5 2.5 2.6 3.3 3.4 2.2 3.4 3.6 5.7 8.6 9.0 7.1 9.0 9.4 7.8 8.3 9.1
12.6 14.9 4.8 6.0 4.6 7.9 8.0 8.0 6.1 8.0 14.6 15.7 5.9 6.7 5.2 5.9 6.3 5.8 5.6 5.1 5.0 5.0 3.9 8.0 8.6 8.6 7.9 10.8 10.5 7.9 9.2 10.7
8.9 6.5 6.1 4.1 3.0 5.2 3.2 2.4 3.8 5.0 5.8 11.0 11.3 10.8 12.7 10.7 8.0 9.1 10.3 9.1 9.5 8.6 10.1 11.1 10.7 9.4 8.9 9.2 7.8 7.8 8.3 11.4
2.4 3.7 4.6 4.2 2.5 1.9 1.1 0.3 0.1 0.3 0.4 0.3 4.0 12.0 11.7 12.5 12.5 13.9 11.6 14.8 15.4 12.0 14.8 10.3 11.7 14.8 15.8 12.8 11.5 9.6 8.9 8.5
1.3 0.4 0.9 1.6 0.9 0.4 0.0 0.0 0.0 0.0 0.0 0.0 0.0 0.1 1.0 3.7 5.5 6.2 5.4 10.7 14.2 10.3 13.4 11.2 13.3 17.7 24.2 20.8 17.6 17.5 15.7 12.8
8.6 3.8 4.0 0.4 2.1 0.0 1.1 0.0 0.0 0.0 0.0 0.1 0.0 0.2 0.3 1.4 1.0 0.9 3.5 3.9 3.8 4.4 6.8 6.4 9.0 14.1 15.3 15.8 17.8 17.8 17.9 17.0
5.1 9.3 7.7 4.8 4.8 3.0 2.4 1.5 1.6 0.0 0.0 0.0 0.1 0.2 1.8 2.0 0.2 0.3 1.9 2.3 3.1 5.4 6.2 6.7 8.1 12.2 13.2 11.7 10.7 12.2 14.8 13.1

GFSFLT1_prec_snow_348.txt.gz
Snowfall_Accumulation
0.0 0.0 0.0 0.0 0.0 0.0 0.0 0.0 0.0 0.0 0.0 0.0 0.0 0.0 0.0 0.0 0.0 0.0 0.0 0.0 0.0 0.0 0.0 0.0 0.0 0.0 0.0 0.0 0.0 0.0 0.0 0.0
0.0 0.0 0.0 0.0 0.0 0.0 0.0 0.0 0.0 0.0 0.0 0.0 0.0 0.0 0.0 0.0 0.0 0.0 0.0 0.0 0.0 0.0 0.0 0.0 0.0 0.0 0.0 0.0 0.0 0.1 0.0 0.0
0.0 0.0 0.0 0.0 0.0 0.0 0.0 0.0 0.0 0.0 0.0 0.0 0.0 0.0 0.0 0.0 0.0 0.0 0.0 0.0 0.0 0.0 0.0 0.0 0.0 0.0 0.0 0.0 0.1 0.4 0.1 0.0
0.0 0.0 0.0 0.0 0.0 0.0 0.0 0.0 0.0 0.0 0.0 0.0 0.0 0.0 0.0 0.0 0.0 0.0 0.0 0.0 0.0 0.0 0.0 0.0 0.0 0.0 0.1 0.0 0.2 0.7 1.5 0.2
0.0 0.0 0.0 0.0 0.0 0.0 0.0 0.0 0.0 0.0 0.0 0.0 0.0 0.0 0.0 0.0 0.0 0.0 0.0 0.0 0.0 0.0 0.0 0.0 0.0 0.0 0.0 0.1 0.1 0.6 1.3 1.6
0.0 0.0 0.0 0.0 0.0 0.0 0.0 0.0 0.0 0.0 0.0 0.0 0.0 0.0 0.0 0.0 0.0 0.0 0.0 0.0 0.0 0.0 0.0 0.0 0.0 0.0 0.0 0.0 0.1 0.7 1.1 2.1
0.0 0.0 0.0 0.0 0.0 0.0 0.0 0.0 0.0 0.0 0.0 0.0 0.1 0.1 0.1 0.1 0.1 0.0 0.0 0.0 0.0 0.0 0.0 0.0 0.0 0.0 0.2 0.1 0.3 0.8 1.0 1.6
1.0 0.1 1.6 1.4 0.3 0.2 0.0 0.0 0.0 0.0 0.0 0.0 0.0 0.1 0.1 0.2 0.2 0.1 0.0 0.0 0.1 0.1 0.0 0.1 0.1 0.0 0.0 0.1 0.6 1.5 1.7 2.7
2.3 5.7 2.8 1.7 1.9 1.3 1.2 0.0 0.2 0.0 0.0 0.0 0.0 0.1 0.2 0.2 0.2 0.3 0.2 0.2 0.2 0.0 0.1 0.0 0.0 0.1 0.0 0.7 1.6 2.2 2.9 3.4
4.2 5.0 2.8 1.2 6.8 10.0 3.4 3.1 0.5 0.3 0.1 0.1 0.1 0.1 0.1 0.3 0.1 0.1 0.2 0.3 0.3 0.1 0.1 0.1 0.0 0.5 1.3 3.1 4.6 5.3 4.5 5.0
4.9 6.9 2.7 2.6 11.1 9.6 4.8 1.5 2.1 1.3 0.1 0.0 0.3 0.2 0.4 0.3 0.2 0.3 0.4 0.4 0.5 1.1 1.1 1.1 1.3 2.8 5.5 6.7 7.1 6.7 6.8 5.8
9.4 5.9 3.5 2.5 6.2 10.2 8.4 6.7 6.3 6.3 3.6 1.1 0.4 2.0 0.4 0.3 0.4 1.6 2.8 3.2 2.7 2.3 3.4 4.5 6.3 8.7 6.8 8.5 8.6 7.8 6.3 6.5
10.1 4.7 4.8 3.3 3.9 4.7 8.3 9.0 10.3 12.7 10.4 8.0 2.6 4.0 4.0 2.5 2.5 2.6 3.3 3.4 2.2 3.4 3.6 5.7 8.6 9.0 7.1 9.0 9.4 7.8 8.5 9.3
12.6 14.9 4.8 6.0 4.6 7.9 8.0 8.0 6.1 8.0 14.6 15.7 5.9 6.7 5.2 5.9 6.3 5.8 5.6 5.1 5.0 5.0 3.9 8.0 8.6 8.6 7.9 10.8 10.5 7.9 9.2 10.7
8.9 6.5 6.1 4.1 3.0 5.2 3.2 2.4 3.8 5.0 5.8 11.0 11.3 10.8 12.7 10.7 8.0 9.1 10.3 9.1 9.5 8.6 10.1 11.1 10.7 9.6 9.0 9.3 7.9 7.8 8.3 11.6
2.4 3.7 4.6 4.2 2.5 1.9 1.1 0.3 0.1 0.3 0.4 0.3 4.0 12.0 11.7 12.5 12.5 13.9 11.6 14.8 15.4 12.0 14.8 10.3 11.7 14.9 15.8 13.0 11.7 9.7 8.9 8.6
1.3 0.4 0.9 1.6 0.9 0.4 0.0 0.0 0.0 0.0 0.0 0.0 0.0 0.1 1.0 3.7 5.6 6.2 5.4 10.7 14.2 10.3 13.4 11.3 13.4 17.7 24.5 21.1 18.0 17.6 15.8 12.8
8.6 3.8 4.0 0.4 2.1 0.0 1.1 0.0 0.0 0.0 0.0 0.1 0.0 0.2 0.3 1.5 1.2 0.9 3.5 3.9 3.8 4.4 6.8 6.5 9.1 14.2 15.4 16.0 18.1 17.9 18.0 17.0
5.1 9.3 7.7 4.8 4.8 3.0 2.4 1.5 1.6 0.0 0.0 0.0 0.1 0.2 1.8 2.0 0.3 0.3 1.9 2.3 3.1 5.5 6.3 6.7 8.2 12.3 13.4 11.8 10.9 12.3 14.8 13.2

GFSFLT1_prec_snow_351.txt.gz
Snowfall_Accumulation
0.0 0.0 0.0 0.0 0.0 0.0 0.0 0.0 0.0 0.0 0.0 0.0 0.0 0.0 0.0 0.0 0.0 0.0 0.0 0.0 0.0 0.0 0.0 0.0 0.0 0.0 0.0 0.0 0.0 0.0 0.0 0.0
0.0 0.0 0.0 0.0 0.0 0.0 0.0 0.0 0.0 0.0 0.0 0.0 0.0 0.0 0.0 0.0 0.0 0.0 0.0 0.0 0.0 0.0 0.0 0.0 0.0 0.0 0.0 0.0 0.0 0.1 0.0 0.0
0.0 0.0 0.0 0.0 0.0 0.0 0.0 0.0 0.0 0.0 0.0 0.0 0.0 0.0 0.0 0.0 0.0 0.0 0.0 0.0 0.0 0.0 0.0 0.0 0.0 0.0 0.0 0.0 0.1 0.4 0.1 0.0
0.0 0.0 0.0 0.0 0.0 0.0 0.0 0.0 0.0 0.0 0.0 0.0 0.0 0.0 0.0 0.0 0.0 0.0 0.0 0.0 0.0 0.0 0.0 0.0 0.0 0.0 0.1 0.0 0.2 0.7 1.5 0.2
0.0 0.0 0.0 0.0 0.0 0.0 0.0 0.0 0.0 0.0 0.0 0.0 0.0 0.0 0.0 0.0 0.0 0.0 0.0 0.0 0.0 0.0 0.0 0.0 0.0 0.0 0.0 0.1 0.1 0.6 1.3 1.6
0.0 0.0 0.0 0.0 0.0 0.0 0.0 0.0 0.0 0.0 0.0 0.0 0.0 0.0 0.0 0.0 0.0 0.0 0.0 0.0 0.0 0.0 0.0 0.0 0.0 0.0 0.0 0.0 0.1 0.7 1.1 2.1
0.0 0.0 0.0 0.0 0.0 0.0 0.0 0.0 0.0 0.0 0.0 0.0 0.1 0.1 0.1 0.1 0.1 0.0 0.0 0.0 0.0 0.0 0.0 0.0 0.0 0.0 0.2 0.1 0.3 0.8 1.0 1.6
1.0 0.1 1.6 1.4 0.3 0.2 0.0 0.0 0.0 0.0 0.0 0.0 0.0 0.1 0.1 0.2 0.2 0.1 0.0 0.0 0.1 0.1 0.0 0.1 0.1 0.0 0.0 0.1 0.6 1.5 1.7 2.7
2.3 5.7 2.8 1.7 1.9 1.3 1.2 0.0 0.2 0.0 0.0 0.0 0.0 0.1 0.2 0.2 0.2 0.3 0.2 0.2 0.2 0.0 0.1 0.0 0.0 0.1 0.0 0.7 1.6 2.2 2.9 3.4
4.2 5.0 2.8 1.2 6.8 10.0 3.4 3.1 0.5 0.3 0.1 0.1 0.1 0.1 0.1 0.3 0.1 0.1 0.2 0.3 0.3 0.1 0.1 0.1 0.0 0.5 1.3 3.1 4.6 5.3 4.5 5.0
4.9 6.9 2.7 2.6 11.1 9.6 4.8 1.5 2.1 1.3 0.1 0.0 0.3 0.2 0.4 0.3 0.2 0.3 0.4 0.4 0.5 1.1 1.1 1.1 1.3 2.8 5.5 6.7 7.1 6.7 6.8 5.8
9.4 5.9 3.5 2.5 6.2 10.2 8.4 6.7 6.3 6.3 3.6 1.1 0.4 2.0 0.4 0.3 0.4 1.6 2.8 3.2 2.7 2.3 3.4 4.5 6.3 8.7 6.8 8.5 8.6 7.8 6.3 6.5
10.1 4.7 4.8 3.3 3.9 4.7 8.3 9.0 10.3 12.7 10.4 8.0 2.6 4.0 4.0 2.5 2.5 2.6 3.3 3.4 2.2 3.4 3.6 5.7 8.6 9.0 7.2 9.1 9.5 7.8 8.5 9.3
12.6 14.9 4.8 6.0 4.6 7.9 8.0 8.0 6.1 8.0 14.6 15.7 5.9 6.7 5.2 5.9 6.3 5.8 5.6 5.1 5.0 5.0 3.9 8.0 8.6 8.7 7.9 11.0 10.7 7.9 9.2 10.7
8.9 6.5 6.1 4.1 3.0 5.2 3.2 2.4 3.8 5.0 5.8 11.0 11.3 10.8 12.7 10.7 8.0 9.1 10.3 9.1 9.5 8.6 10.1 11.1 10.7 9.6 9.2 9.5 8.1 7.9 8.3 11.6
2.4 3.7 4.6 4.2 2.5 1.9 1.1 0.3 0.1 0.3 0.4 0.3 4.0 12.0 11.7 12.5 12.5 14.0 11.6 14.8 15.4 12.0 14.8 10.3 11.8 15.1 16.0 13.3 12.0 9.7 9.0 8.6
1.3 0.4 0.9 1.6 0.9 0.4 0.0 0.0 0.0 0.0 0.0 0.0 0.0 0.1 1.0 3.7 5.8 6.2 5.4 10.7 14.2 10.3 13.4 11.4 13.6 18.0 24.8 21.3 18.5 18.0 15.9 12.8
8.6 3.8 4.0 0.4 2.1 0.0 1.1 0.0 0.0 0.0 0.0 0.1 0.0 0.2 0.3 1.5 1.3 0.9 3.5 4.0 3.9 4.4 6.8 6.6 9.3 14.6 15.7 16.4 18.7 18.3 18.1 17.0
5.1 9.3 7.7 4.8 4.8 3.0 2.4 1.5 1.6 0.0 0.0 0.0 0.1 0.2 1.8 2.1 0.5 0.4 2.1 2.5 3.2 5.5 6.3 6.8 8.3 12.6 13.9 12.4 11.4 12.5 15.0 13.2

GFSFLT1_prec_snow_354.txt.gz
Snowfall_Accumulation
0.0 0.0 0.0 0.0 0.0 0.0 0.0 0.0 0.0 0.0 0.0 0.0 0.0 0.0 0.0 0.0 0.0 0.0 0.0 0.0 0.0 0.0 0.0 0.0 0.0 0.0 0.0 0.0 0.0 0.0 0.0 0.0
0.0 0.0 0.0 0.0 0.0 0.0 0.0 0.0 0.0 0.0 0.0 0.0 0.0 0.0 0.0 0.0 0.0 0.0 0.0 0.0 0.0 0.0 0.0 0.0 0.0 0.0 0.0 0.0 0.0 0.1 0.0 0.0
0.0 0.0 0.0 0.0 0.0 0.0 0.0 0.0 0.0 0.0 0.0 0.0 0.0 0.0 0.0 0.0 0.0 0.0 0.0 0.0 0.0 0.0 0.0 0.0 0.0 0.0 0.0 0.0 0.1 0.4 0.1 0.0
0.0 0.0 0.0 0.0 0.0 0.0 0.0 0.0 0.0 0.0 0.0 0.0 0.0 0.0 0.0 0.0 0.0 0.0 0.0 0.0 0.0 0.0 0.0 0.0 0.0 0.0 0.1 0.0 0.2 0.7 1.5 0.2
0.0 0.0 0.0 0.0 0.0 0.0 0.0 0.0 0.0 0.0 0.0 0.0 0.0 0.0 0.0 0.0 0.0 0.0 0.0 0.0 0.0 0.0 0.0 0.0 0.0 0.0 0.0 0.1 0.1 0.6 1.3 1.6
0.0 0.0 0.0 0.0 0.0 0.0 0.0 0.0 0.0 0.0 0.0 0.0 0.0 0.0 0.0 0.0 0.0 0.0 0.0 0.0 0.0 0.0 0.0 0.0 0.0 0.0 0.0 0.0 0.1 0.7 1.1 2.1
0.0 0.0 0.0 0.0 0.0 0.0 0.0 0.0 0.0 0.0 0.0 0.0 0.1 0.1 0.1 0.1 0.1 0.0 0.0 0.0 0.0 0.0 0.0 0.0 0.0 0.0 0.2 0.1 0.3 0.8 1.0 1.6
1.0 0.1 1.6 1.4 0.3 0.2 0.0 0.0 0.0 0.0 0.0 0.0 0.0 0.1 0.1 0.2 0.2 0.1 0.0 0.0 0.1 0.1 0.0 0.1 0.1 0.0 0.0 0.1 0.6 1.5 1.7 2.7
2.3 5.7 2.8 1.7 1.9 1.3 1.2 0.0 0.2 0.0 0.0 0.0 0.0 0.1 0.2 0.2 0.2 0.3 0.2 0.2 0.2 0.0 0.1 0.0 0.0 0.1 0.0 0.7 1.6 2.2 2.9 3.4
4.2 5.0 2.8 1.2 6.8 10.0 3.4 3.1 0.5 0.3 0.1 0.1 0.1 0.1 0.1 0.3 0.1 0.1 0.2 0.3 0.3 0.1 0.1 0.1 0.0 0.5 1.3 3.1 4.6 5.3 4.5 5.0
4.9 6.9 2.7 2.6 11.1 9.6 4.8 1.5 2.1 1.3 0.1 0.0 0.3 0.2 0.4 0.3 0.2 0.3 0.4 0.4 0.5 1.1 1.1 1.1 1.3 2.8 5.5 6.7 7.1 6.7 6.8 5.8
9.4 5.9 3.5 2.5 6.2 10.2 8.4 6.7 6.3 6.3 3.6 1.1 0.4 2.0 0.4 0.3 0.4 1.6 2.8 3.2 2.7 2.3 3.4 4.5 6.3 8.7 6.8 8.7 8.7 7.8 6.3 6.5
10.1 4.7 4.8 3.3 3.9 4.7 8.3 9.0 10.3 12.7 10.4 8.0 2.6 4.0 4.0 2.5 2.5 2.6 3.3 3.4 2.2 3.4 3.6 5.7 8.9 9.2 7.2 9.3 9.7 7.8 8.5 9.3
12.6 14.9 4.8 6.0 4.6 7.9 8.0 8.0 6.1 8.0 14.6 15.7 5.9 6.7 5.2 5.9 6.3 5.8 5.6 5.1 5.0 5.0 3.9 8.0 8.6 8.8 8.0 11.0 10.8 7.9 9.3 10.7
8.9 6.5 6.1 4.1 3.0 5.2 3.2 2.4 3.8 5.0 5.8 11.0 11.3 10.8 12.7 10.7 8.0 9.1 10.5 9.2 9.5 8.6 10.1 11.1 10.8 9.6 9.2 9.6 8.2 8.0 8.4 11.6
2.4 3.7 4.6 4.2 2.5 1.9 1.1 0.3 0.1 0.3 0.4 0.3 4.0 12.0 11.7 12.5 12.5 14.2 11.6 14.9 15.5 12.0 14.9 10.3 11.8 15.2 16.3 13.5 12.2 9.9 9.2 8.6
1.3 0.4 0.9 1.6 0.9 0.4 0.0 0.0 0.0 0.0 0.0 0.0 0.0 0.1 1.0 3.7 5.8 6.6 5.4 10.8 14.4 10.5 13.6 11.5 13.7 18.1 25.0 21.6 18.8 18.2 16.0 12.8
8.6 3.8 4.0 0.4 2.1 0.0 1.1 0.0 0.0 0.0 0.0 0.1 0.0 0.2 0.3 1.5 1.7 1.3 3.5 4.1 4.1 4.6 6.9 6.7 9.4 14.8 16.0 16.7 19.1 18.5 18.2 17.0
5.1 9.3 7.7 4.8 4.8 3.0 2.4 1.5 1.6 0.0 0.0 0.1 0.1 0.2 1.8 2.3 0.9 0.8 2.1 2.5 3.6 5.9 6.5 6.9 8.4 12.8 14.2 12.8 11.7 12.7 15.1 13.2